Temperature
18 18 18 18 18 18 18 18 18 17 18 18 18 18 18 18 17 17 17 17 17 17 17 17 17 17 17 17 17 17 17 16 16 16 16 16 16 16 16 16 16 16 16
18 18 18 18 18 18 18 18 18 17 17 17 17 17 18 17 17 17 17 17 17 17 17 17 17 17 17 17 17 17 16 16 16 16 16 16 16 16 16 16 16 16 16
18 18 18 18 18 18 18 18 18 18 17 17 17 17 17 17 17 17 17 17 17 17 17 17 17 17 17 17 17 16 16 16 16 16 16 16 16 16 16 16 16 16 15
18 18 18 18 18 18 18 18 18 18 18 17 17 17 17 17 17 17 17 17 17 17 17 17 17 17 16 16 16 16 16 16 16 16 16 16 16 16 16 16 16 15 15
18 18 18 18 18 18 18 18 18 18 17 17 17 17 17 17 17 17 17 17 17 17 17 17 17 16 16 16 16 16 16 16 16 16 16 16 16 16 16 16 16 15 15
18 18 18 18 18 18 18 18 17 17 17 17 17 17 17 17 17 17 17 17 17 17 17 17 17 16 16 16 16 16 16 16 16 16 16 16 16 16 16 15 15 15 15
18 18 18 18 18 18 17 17 17 17 17 17 17 17 17 17 17 17 17 17 17 17 17 17 17 16 16 16 16 16 16 16 16 16 16 16 16 15 15 15 15 15 15
18 18 18 18 18 18 17 17 17 17 17 17 17 17 16 16 16 16 17 17 17 16 16 16 16 16 16 16 16 16 16 16 16 15 15 15 15 15 15 15 15 15 15
18 18 18 18 18 18 18 17 17 17 17 17 17 17 16 16 16 16 16 16 16 16 16 16 16 16 16 16 16 16 16 16 16 15 15 15 15 15 15 15 15 15 15
18 18 18 18 18 18 18 17 17 17 17 17 17 17 17 16 16 15 15 15 16 16 16 15 15 15 16 16 16 16 16 16 15 15 15 15 15 15 15 15 14 14 14
18 18 18 17 17 17 17 17 17 17 17 17 17 17 16 16 16 15 15 15 15 15 15 15 15 15 15 15 15 15 15 15 15 15 15 15 15 15 14 14 14 14 14
18 18 17 17 17 17 17 17 17 17 17 17 17 16 16 16 16 16 15 15 15 15 15 15 15 15 15 15 15 15 15 15 15 15 15 15 14 14 14 14 14 14 14
18 17 17 17 17 17 17 17 17 17 17 16 16 16 16 16 16 16 15 15 14 14 14 14 14 14 14 14 14 14 14 14 14 14 14 14 14 14 14 14 14 14 14
17 17 17 17 17 17 17 17 17 16 16 16 16 16 16 16 16 16 16 15 14 14 14 14 14 14 14 14 14 14 14 14 14 14 14 14 14 14 14 13 13 13 13
17 17 17 17 17 17 17 16 16 16 16 16 16 16 16 16 16 15 15 15 15 14 13 13 13 13 13 13 13 13 13 13 13 14 13 13 13 13 13 13 13 13 13
17 17 17 17 17 17 16 16 16 16 16 15 15 15 15 15 15 15 15 15 15 15 14 13 13 13 13 13 13 13 13 13 13 13 13 13 13 13 13 13 12 12 12
17 17 16 16 16 16 16 16 16 16 15 15 15 15 15 15 15 15 15 15 15 14 14 13 13 13 13 13 12 12 12 12 12 12 12 12 12 12 12 12 12 12 12
17 16 16 16 16 16 16 16 15 15 15 15 15 15 15 15 15 15 15 15 14 14 14 13 13 12 12 12 12 12 12 12 12 12 12 12 12 12 11 11 11 11 11
16 16 16 16 16 16 15 15 15 15 15 15 14 14 14 14 15 14 14 14 14 14 13 13 13 12 12 12 12 11 11 11 11 11 11 11 11 11 11 11 11 10 10
16 16 16 16 15 15 15 15 15 15 14 14 14 14 14 14 14 14 14 14 13 13 13 13 12 12 11 11 11 11 11 11 11 11 10 10 10 10 10 10 10 10 10
16 15 15 15 15 15 14 14 14 14 14 14 14 14 14 14 14 13 13 13 13 13 12 12 12 11 11 11 11 11 11 11 10 10 10 10 10 10 10 10 10 9 9
15 15 15 15 15 14 14 14 14 14 14 14 14 13 13 13 13 13 13 13 12 12 12 12 12 11 11 11 11 11 10 10 10 10 10 10 10 9 9 9 9 9 9
15 15 15 14 14 14 14 14 14 13 13 13 13 13 13 13 13 13 12 12 12 12 12 11 11 11 11 11 10 10 10 10 10 10 10 9 9 9 9 9 9 9 8
15 14 14 14 14 14 13 13 13 13 13 13 13 12 12 12 12 12 12 12 12 11 11 11 11 11 10 10 10 10 10 10 9 9 9 9 9 9 9 9 9 8 8
15 14 14 14 14 13 13 13 13 13 13 12 12 12 12 12 12 12 12 12 11 11 11 10 10 10 10 10 10 10 10 10 9 9 9 9 9 9 9 8 8 8 8
14 14 14 14 13 13 13 13 13 13 12 12 12 12 11 11 11 11 11 11 11 11 11 10 10 10 10 10 10 10 10 9 9 9 9 9 8 8 8 8 8 8 8
Wind_Speed
0 1 1 1 2 1 1 1 1 1 1 1 1 1 2 3 4 5 5 7 7 8 10 10 10 10 10 10 10 9 9 9 10 10 10 10 9 9 9 8 8 8 8
2 1 1 1 2 1 1 1 1 0 1 1 0 1 2 3 3 4 4 5 7 8 9 10 11 11 11 11 10 10 10 10 9 10 10 11 10 10 10 9 9 9 9
3 2 1 1 2 2 1 1 0 0 0 0 0 1 1 2 3 4 4 4 5 7 9 10 10 11 11 11 11 11 11 10 10 10 10 9 9 10 11 10 10 9 9
5 3 2 2 3 1 1 1 1 1 0 1 0 1 0 1 3 4 4 4 4 5 6 7 9 9 10 11 12 12 11 11 11 11 11 11 11 10 10 11 12 11 11
5 4 2 2 2 1 1 1 1 1 1 1 0 0 0 1 1 2 3 4 4 4 4 6 7 8 9 10 11 12 12 12 12 12 12 12 12 11 11 10 12 13 13
4 4 2 2 2 1 1 1 1 1 1 1 1 1 1 0 0 1 2 2 3 4 4 4 5 6 8 9 10 10 11 12 12 12 12 12 12 11 11 10 10 10 11
3 3 2 1 2 2 2 2 2 2 1 2 2 2 2 2 1 0 0 1 1 2 2 2 3 4 5 7 9 10 10 10 10 11 11 10 11 11 11 11 11 11 10
3 3 3 2 2 2 2 2 3 2 2 2 2 2 0 2 3 2 1 0 0 0 0 1 2 3 4 4 4 6 8 8 8 9 10 10 10 10 10 10 10 10 11
2 2 2 2 2 2 3 3 4 4 3 2 2 3 2 2 0 2 2 1 1 1 1 2 1 1 2 2 3 3 4 5 6 7 7 8 8 8 8 8 7 7 7
0 1 1 1 1 1 2 2 3 3 3 3 2 2 2 3 2 0 1 2 2 2 1 1 2 1 1 1 1 1 3 3 3 3 3 4 5 6 7 7 6 5 4
2 2 1 1 1 0 1 1 1 2 3 3 2 2 2 1 2 2 2 0 1 2 1 1 2 2 2 2 3 2 3 3 3 3 2 2 2 2 2 1 2 1 2
2 2 2 1 1 1 0 0 0 1 1 2 2 2 2 2 3 3 3 2 1 1 1 1 2 2 2 2 3 4 4 3 3 3 3 3 3 3 3 3 2 2 2
1 1 1 1 1 1 1 1 1 1 0 1 1 2 2 2 2 3 4 2 1 1 1 2 2 2 2 3 3 3 4 4 4 4 4 4 4 3 3 3 3 3 2
0 1 2 2 2 2 2 2 2 1 1 1 0 1 1 1 2 4 4 4 2 0 0 1 1 2 2 3 3 3 4 5 5 5 6 6 5 5 4 4 3 3 3
1 2 2 2 3 3 2 2 2 2 2 1 1 0 0 0 1 2 3 3 3 2 1 1 0 1 3 4 4 5 6 7 7 7 7 7 6 6 6 6 5 4 4
2 3 3 3 3 3 3 3 3 2 3 2 2 2 1 1 1 1 2 2 2 3 2 0 0 1 3 4 6 6 7 8 9 8 8 7 7 7 7 6 6 6 6
3 3 3 4 4 3 3 3 3 3 4 3 3 3 3 2 1 1 1 1 2 2 3 1 1 1 2 3 4 6 7 7 8 9 8 8 7 7 6 6 6 6 6
4 3 3 4 3 4 4 4 4 4 4 4 4 4 4 3 4 2 2 3 2 2 4 4 1 1 2 2 3 4 5 5 6 7 7 8 7 7 6 6 6 6 6
4 4 4 4 4 4 4 5 5 5 5 5 4 4 4 4 4 4 4 4 3 4 4 4 3 2 2 2 3 3 4 4 5 6 7 7 8 8 7 6 6 6 6
5 5 5 4 4 4 5 5 5 5 6 6 5 5 4 4 4 4 4 5 5 5 5 5 4 3 2 2 2 2 3 3 2 4 5 6 7 7 6 6 6 6 6
5 5 5 5 5 4 4 4 5 6 6 6 6 6 5 6 6 5 5 5 6 5 5 5 4 3 3 2 2 1 2 2 2 2 2 3 4 4 5 5 5 4 4
5 6 6 5 5 5 6 7 6 6 6 6 6 6 6 7 8 8 9 8 7 6 6 4 4 3 2 1 1 2 2 1 1 1 1 2 3 2 3 4 4 4 3
5 5 5 5 5 5 7 8 8 6 6 6 5 5 5 6 7 7 9 9 8 8 7 5 5 2 2 1 2 2 1 1 1 1 1 1 2 2 2 3 3 2 2
5 4 4 5 5 5 6 8 9 8 7 6 6 5 6 5 5 6 7 8 7 6 5 4 3 2 2 2 2 2 2 2 2 2 1 1 1 1 2 3 3 2 2
4 4 4 4 4 4 5 6 7 5 6 6 6 6 5 5 6 7 8 7 7 6 7 8 7 6 6 5 4 4 3 2 1 1 1 0 1 1 2 2 3 4 3
5 5 4 3 3 3 4 6 6 4 4 4 4 5 6 6 7 7 6 6 6 3 4 5 6 7 6 6 5 3 2 2 1 0 0 0 0 1 1 1 3 4 4
Wind_Direction
265 321 323 317 314 327 352 8 29 0 330 308 280 191 187 187 189 195 200 203 207 207 204 202 201 203 206 207 209 210 208 208 210 211 209 209 209 209 208 206 205 205 208
223 246 281 291 289 280 264 247 249 294 317 303 268 222 199 192 191 200 209 219 220 216 214 213 211 212 214 214 215 215 216 214 213 212 215 216 215 215 215 215 212 209 211
220 225 235 266 266 260 238 221 227 78 20 137 225 236 195 199 193 204 213 222 229 228 222 221 221 222 222 220 220 220 219 218 218 216 215 215 218 221 221 221 220 218 219
215 206 215 247 254 241 177 166 164 130 152 146 94 337 182 196 200 210 212 214 222 233 237 235 233 231 230 230 228 226 222 220 219 219 219 219 221 223 224 224 225 226 226
210 199 212 234 224 181 177 203 152 162 162 142 125 42 110 180 220 218 218 218 218 229 242 252 247 243 242 240 237 233 229 224 222 222 223 223 224 226 228 227 230 232 232
203 196 210 222 176 152 168 162 162 153 160 149 105 56 36 346 323 254 239 222 218 227 237 249 259 261 255 252 247 240 234 229 226 225 226 227 227 227 226 227 231 235 238
202 193 212 202 181 181 196 182 158 148 150 138 108 61 38 36 34 330 269 213 226 236 237 248 262 268 270 261 253 248 241 237 232 230 229 228 230 229 229 230 233 235 239
211 207 196 209 203 190 193 186 165 164 187 171 153 137 32 19 27 31 39 132 233 84 127 252 251 262 266 268 261 249 241 238 234 233 232 230 230 230 230 233 239 241 241
218 215 207 205 204 194 203 203 188 186 198 206 192 171 172 203 312 19 35 49 51 46 31 32 7 311 290 282 267 246 222 224 230 236 232 225 222 223 226 228 237 245 246
93 170 173 172 185 188 205 221 198 200 191 209 211 213 204 168 172 178 25 39 48 27 1 14 16 4 2 5 359 170 163 159 164 190 204 207 207 215 224 229 235 239 237
39 54 77 81 86 130 215 225 200 201 201 211 205 187 182 184 189 194 226 315 30 13 13 5 22 28 31 51 58 80 123 137 139 134 136 142 142 134 149 157 160 186 222
21 31 54 60 50 52 21 297 156 172 197 204 200 195 188 188 183 185 201 214 256 339 8 6 14 27 34 51 68 76 87 103 108 111 113 116 118 114 100 92 94 87 71
23 11 45 52 38 45 53 61 82 80 132 170 203 212 207 208 182 167 169 191 219 269 15 24 16 33 37 42 55 77 79 85 101 106 106 108 109 104 97 87 74 65 60
99 49 66 61 47 48 56 68 67 52 58 75 278 223 208 207 181 171 172 166 175 242 329 299 18 38 48 57 62 85 75 85 94 99 100 102 100 97 91 88 83 74 66
85 70 74 67 54 53 56 67 62 44 54 50 29 52 125 198 166 187 179 181 178 197 242 237 342 19 64 70 74 82 82 82 89 94 97 95 92 89 86 84 82 80 72
75 78 71 63 55 51 52 57 51 39 58 44 39 58 56 53 100 160 191 202 189 187 203 182 142 58 75 84 78 80 80 80 80 84 87 89 88 88 88 88 84 78 72
86 83 76 68 55 47 47 61 55 50 56 46 41 58 52 50 68 80 112 130 147 156 154 127 77 76 79 75 74 75 77 76 76 76 79 82 83 83 84 84 81 77 72
83 82 79 73 59 53 55 66 63 53 57 53 47 55 48 51 58 66 80 84 96 116 143 142 117 79 76 78 75 77 73 76 77 75 77 77 77 75 75 77 76 71 67
87 81 74 71 64 57 58 60 66 63 60 56 53 57 54 65 68 71 83 87 90 98 104 124 112 75 68 75 76 73 66 54 66 67 70 69 71 71 69 68 69 71 70
94 86 74 68 66 64 64 63 68 68 64 56 52 55 57 72 87 91 91 91 96 96 98 106 103 90 77 66 76 78 63 45 48 54 59 63 64 65 63 62 60 62 64
92 88 80 66 59 63 64 71 73 74 71 63 55 53 60 71 80 90 100 101 103 100 102 102 103 99 86 85 78 75 89 69 51 36 39 39 41 42 38 38 42 47 57
88 86 83 76 62 57 63 74 83 79 73 69 61 53 58 61 74 84 90 94 101 110 115 111 109 112 109 112 88 102 98 81 58 14 42 35 34 30 12 19 24 33 35
96 89 83 81 72 60 65 72 77 83 76 68 62 59 64 59 64 80 83 80 76 78 93 115 118 125 140 154 132 109 89 88 66 22 57 37 17 3 336 350 4 16 8
107 100 91 87 82 72 78 82 82 77 73 63 59 61 67 58 62 80 86 78 70 65 75 92 111 114 101 128 147 145 150 112 72 49 56 30 349 321 324 319 324 324 315
110 102 100 96 91 73 78 87 88 83 73 60 52 55 66 67 62 80 89 86 74 57 64 77 81 79 79 85 104 101 101 114 78 31 28 0 316 314 312 315 324 320 310
121 115 104 95 92 77 79 93 97 95 84 72 56 49 56 69 70 78 88 93 88 66 64 65 59 56 61 72 89 104 131 123 101 355 352 233 314 330 313 315 326 331 328
Height
1560 1561 1561 1562 1563 1563 1564 1564 1565 1565 1565 1566 1566 1567 1567 1568 1568 1569 1569 1569 1570 1570 1571 1571 1572 1572 1573 1573 1574 1574 1575 1575 1576 1577 1578 1578 1579 1580 1580 1581 1582 1582 1583
1561 1562 1563 1563 1564 1564 1564 1565 1565 1565 1566 1566 1566 1567 1567 1568 1568 1569 1569 1569 1569 1570 1570 1570 1571 1571 1572 1572 1573 1573 1574 1574 1575 1575 1576 1577 1577 1578 1579 1579 1580 1581 1582
1562 1563 1563 1564 1564 1565 1565 1565 1565 1565 1565 1566 1566 1566 1567 1567 1568 1568 1568 1569 1569 1569 1569 1570 1570 1570 1571 1571 1571 1572 1572 1572 1573 1573 1574 1575 1576 1576 1577 1577 1578 1579 1580
1563 1563 1563 1564 1564 1565 1565 1565 1565 1565 1565 1565 1565 1565 1566 1566 1566 1566 1567 1567 1568 1568 1568 1569 1569 1569 1569 1569 1570 1570 1570 1570 1571 1571 1572 1573 1574 1574 1575 1575 1576 1576 1577
1563 1563 1563 1564 1564 1564 1564 1564 1564 1564 1564 1564 1564 1564 1565 1565 1565 1565 1565 1566 1566 1566 1567 1567 1567 1567 1567 1568 1568 1568 1568 1568 1569 1569 1570 1570 1571 1572 1573 1573 1573 1574 1575
1562 1563 1563 1563 1564 1564 1564 1563 1563 1563 1563 1563 1563 1563 1563 1563 1563 1563 1564 1564 1564 1565 1565 1565 1565 1565 1565 1565 1565 1566 1566 1566 1566 1567 1567 1568 1569 1569 1570 1571 1571 1571 1572
1562 1562 1562 1563 1563 1563 1562 1562 1562 1562 1562 1562 1562 1562 1562 1562 1562 1562 1562 1562 1563 1563 1563 1563 1563 1563 1563 1563 1563 1563 1563 1563 1563 1564 1564 1565 1566 1566 1567 1568 1568 1568 1569
1561 1561 1561 1561 1561 1561 1561 1561 1560 1560 1560 1560 1560 1560 1560 1561 1560 1561 1561 1561 1561 1561 1561 1561 1561 1560 1560 1560 1560 1560 1560 1560 1560 1561 1561 1562 1563 1563 1564 1564 1565 1565 1566
1560 1560 1560 1560 1560 1560 1559 1559 1558 1558 1558 1558 1559 1559 1559 1558 1559 1560 1559 1559 1560 1559 1559 1559 1559 1558 1558 1557 1557 1557 1557 1557 1557 1558 1558 1559 1559 1560 1561 1561 1561 1561 1562
1559 1559 1558 1558 1558 1557 1557 1557 1556 1556 1556 1556 1556 1556 1557 1556 1557 1557 1558 1558 1558 1558 1557 1557 1556 1556 1556 1555 1554 1554 1554 1554 1554 1555 1555 1556 1556 1557 1558 1558 1559 1559 1559
1557 1557 1557 1556 1556 1555 1555 1555 1554 1554 1553 1553 1553 1553 1553 1554 1554 1554 1555 1556 1556 1556 1555 1555 1555 1554 1554 1553 1552 1552 1552 1552 1552 1553 1553 1554 1554 1555 1555 1555 1555 1555 1555
1556 1555 1555 1554 1554 1553 1553 1552 1552 1551 1551 1550 1550 1550 1550 1551 1551 1551 1552 1552 1553 1553 1553 1553 1553 1552 1552 1551 1551 1550 1550 1550 1551 1551 1551 1552 1552 1552 1553 1553 1553 1553 1553
1554 1554 1553 1552 1552 1551 1550 1550 1550 1549 1548 1548 1548 1548 1548 1548 1548 1548 1549 1549 1550 1551 1551 1551 1550 1550 1550 1549 1548 1548 1548 1549 1549 1549 1549 1550 1550 1550 1551 1551 1551 1551 1551
1552 1552 1551 1550 1550 1549 1548 1548 1547 1547 1546 1546 1545 1545 1545 1546 1546 1546 1546 1547 1547 1548 1549 1549 1549 1548 1548 1547 1547 1547 1547 1547 1547 1548 1548 1548 1549 1549 1549 1549 1549 1549 1549
1551 1550 1549 1549 1548 1548 1547 1546 1546 1545 1545 1544 1544 1543 1543 1544 1544 1544 1545 1545 1546 1545 1546 1547 1547 1547 1547 1547 1546 1546 1546 1546 1546 1547 1547 1547 1547 1547 1547 1547 1547 1547 1547
1550 1549 1548 1548 1547 1547 1546 1545 1545 1544 1543 1543 1543 1542 1542 1542 1542 1542 1543 1543 1543 1543 1543 1544 1545 1546 1546 1546 1546 1546 1545 1546 1546 1546 1545 1546 1546 1546 1546 1546 1546 1546 1546
1549 1548 1548 1547 1547 1546 1545 1545 1544 1543 1543 1542 1542 1541 1541 1541 1541 1541 1541 1541 1541 1541 1541 1542 1543 1544 1544 1544 1545 1545 1545 1545 1545 1545 1545 1545 1545 1545 1545 1545 1545 1545 1544
1548 1548 1548 1547 1546 1546 1545 1544 1543 1543 1542 1541 1541 1541 1541 1541 1540 1540 1540 1540 1540 1540 1540 1540 1541 1542 1543 1543 1544 1544 1544 1544 1545 1545 1545 1545 1545 1545 1544 1544 1544 1544 1543
1548 1548 1547 1547 1546 1546 1545 1544 1543 1543 1542 1541 1541 1541 1541 1541 1540 1540 1539 1539 1539 1539 1539 1540 1540 1541 1542 1543 1543 1544 1544 1544 1544 1544 1544 1544 1544 1544 1544 1544 1543 1543 1542
1547 1548 1548 1547 1546 1546 1545 1545 1544 1543 1542 1541 1541 1541 1541 1541 1541 1540 1540 1540 1540 1540 1540 1540 1541 1541 1542 1543 1543 1544 1544 1544 1544 1544 1544 1544 1544 1544 1544 1543 1543 1543 1542
1547 1548 1548 1548 1547 1546 1546 1545 1545 1544 1543 1542 1542 1542 1542 1542 1541 1541 1541 1541 1541 1541 1541 1541 1541 1542 1542 1543 1543 1544 1544 1544 1544 1544 1544 1544 1544 1544 1544 1543 1543 1542 1542
1547 1547 1548 1548 1548 1547 1547 1547 1546 1545 1544 1544 1543 1543 1543 1543 1542 1542 1542 1542 1542 1542 1542 1542 1542 1542 1543 1543 1544 1545 1545 1544 1544 1545 1545 1545 1545 1544 1544 1543 1543 1542 1541
1547 1548 1548 1548 1548 1548 1548 1548 1547 1547 1546 1545 1545 1545 1544 1544 1544 1544 1543 1543 1543 1543 1544 1544 1544 1544 1544 1544 1545 1545 1545 1545 1545 1546 1545 1545 1545 1544 1544 1544 1543 1542 1541
1547 1548 1548 1548 1549 1549 1549 1549 1549 1548 1547 1547 1547 1546 1546 1546 1545 1545 1545 1545 1545 1545 1545 1545 1545 1545 1546 1546 1546 1546 1546 1546 1546 1546 1545 1545 1545 1544 1544 1543 1543 1542 1541
1547 1548 1548 1549 1549 1549 1549 1550 1550 1550 1549 1549 1548 1548 1548 1547 1547 1547 1547 1547 1546 1546 1546 1546 1547 1547 1547 1547 1546 1546 1546 1546 1545 1545 1545 1545 1544 1543 1543 1542 1542 1541 1540
1547 1548 1548 1549 1550 1550 1550 1551 1551 1551 1550 1550 1550 1550 1549 1549 1549 1549 1549 1548 1547 1548 1548 1548 1548 1548 1547 1547 1546 1546 1546 1545 1545 1545 1545 1544 1543 1543 1542 1542 1541 1540 1539